When you browse on this site, cookies collect data to enhance your experience and personalize the content and advertising you see.
Visit our Privacy Policy to learn more. By continuing to use the site, you agree to this use of cookies and data.
  • In Hungary
  • List of Countries
  • For 7 days
  • Water Temperature
  • Weather Map
  • News
  • Weather Widgets
  • user-avatar
    Login

    Hourly Weather Bolgatanga

    Today, 26 May, Tuesday

    Time Temperature Precipitation Wind Pressure Humidity
    00:00 +31°C° 0 mm 3 mps 742 mmHg 57%
    01:00 +30°C° 0 mm 3 mps 742 mmHg 58%
    02:00 +30°C° 0 mm 3 mps 741 mmHg 60%
    03:00 +30°C° 0 mm 3 mps 741 mmHg 62%
    04:00 +29°C° 0 mm 3 mps 741 mmHg 62%
    05:00 +29°C° 0 mm 2 mps 742 mmHg 62%
    06:00 +29°C° 0 mm 2 mps 742 mmHg 61%
    07:00 +30°C° 0.2 mm 2 mps 743 mmHg 58%
    08:00 +31°C° 0.2 mm 3 mps 743 mmHg 54%
    09:00 +33°C° 0.2 mm 3 mps 743 mmHg 51%
    10:00 +35°C° 0 mm 3 mps 743 mmHg 46%
    11:00 +37°C° 0 mm 2 mps 743 mmHg 41%
    12:00 +38°C° 0 mm 2 mps 743 mmHg 36%
    13:00 +39°C° 0 mm 2 mps 742 mmHg 34%
    14:00 +40°C° 0 mm 2 mps 741 mmHg 31%
    15:00 +42°C° 0 mm 3 mps 740 mmHg 29%
    16:00 +40°C° 0 mm 3 mps 740 mmHg 31%
    17:00 +39°C° 0 mm 3 mps 740 mmHg 33%
    18:00 +38°C° 0 mm 3 mps 740 mmHg 35%
    19:00 +37°C° 0 mm 3 mps 740 mmHg 37%
    20:00 +36°C° 0 mm 2 mps 741 mmHg 40%
    21:00 +35°C° 0 mm 2 mps 742 mmHg 42%
    22:00 +35°C° 0 mm 2 mps 742 mmHg 42%
    23:00 +35°C° 0 mm 2 mps 742 mmHg 43%

    Tomorrow, 27 May, Wednesday

    Time Temperature Precipitation Wind Pressure Humidity
    00:00 +34°C° 0 mm 3 mps 742 mmHg 44%
    01:00 +34°C° 0 mm 3 mps 742 mmHg 48%
    02:00 +33°C° 0 mm 3 mps 742 mmHg 52%
    03:00 +31°C° 0 mm 3 mps 741 mmHg 55%
    04:00 +31°C° 0.4 mm 3 mps 742 mmHg 59%
    05:00 +30°C° 0.4 mm 3 mps 742 mmHg 63%
    06:00 +30°C° 0.4 mm 3 mps 742 mmHg 66%
    07:00 +30°C° 0 mm 3 mps 743 mmHg 65%
    08:00 +30°C° 0 mm 3 mps 743 mmHg 65%
    09:00 +30°C° 0 mm 3 mps 744 mmHg 64%
    10:00 +31°C° 0 mm 2 mps 743 mmHg 60%
    11:00 +32°C° 0 mm 2 mps 743 mmHg 56%
    12:00 +34°C° 0 mm 2 mps 743 mmHg 52%
    13:00 +35°C° 0 mm 3 mps 742 mmHg 48%
    14:00 +36°C° 0 mm 3 mps 741 mmHg 44%
    15:00 +37°C° 0 mm 3 mps 740 mmHg 41%
    16:00 +37°C° 0.1 mm 3 mps 740 mmHg 42%
    17:00 +36°C° 0.1 mm 2 mps 740 mmHg 43%
    18:00 +36°C° 0.1 mm 2 mps 740 mmHg 44%
    19:00 +35°C° 0.3 mm 2 mps 741 mmHg 47%
    20:00 +34°C° 0.3 mm 2 mps 741 mmHg 51%
    21:00 +32°C° 0.3 mm 2 mps 742 mmHg 54%
    22:00 +31°C° 0.8 mm 1 mps 742 mmHg 57%
    23:00 +31°C° 0.8 mm 1 mps 742 mmHg 60%

    Day after tomorrow, 28 May, Thursday

    Time Temperature Precipitation Wind Pressure Humidity
    00:00 +30°C° 0.8 mm 1 mps 742 mmHg 63%
    01:00 +30°C° 0.4 mm 1 mps 742 mmHg 63%
    02:00 +28°C° 0.4 mm 0 mps 742 mmHg 64%
    03:00 +28°C° 0.4 mm 0 mps 741 mmHg 65%
    04:00 +30°C° 0 mm 1 mps 742 mmHg 66%
    05:00 +30°C° 0 mm 1 mps 742 mmHg 67%
    06:00 +29°C° 0 mm 2 mps 742 mmHg 69%
    07:00 +30°C° 0 mm 2 mps 743 mmHg 69%
    08:00 +30°C° 0 mm 2 mps 743 mmHg 69%
    09:00 +30°C° 0 mm 3 mps 744 mmHg 69%
    10:00 +31°C° 0 mm 3 mps 743 mmHg 66%
    11:00 +31°C° 0 mm 3 mps 742 mmHg 63%
    12:00 +33°C° 0 mm 3 mps 742 mmHg 60%
    13:00 +34°C° 0 mm 3 mps 741 mmHg 53%
    14:00 +36°C° 0 mm 2 mps 741 mmHg 47%
    15:00 +38°C° 0 mm 2 mps 740 mmHg 40%
    16:00 +38°C° 0 mm 2 mps 740 mmHg 40%
    17:00 +37°C° 0 mm 2 mps 740 mmHg 40%
    18:00 +36°C° 0 mm 1 mps 740 mmHg 40%
    19:00 +36°C° 0 mm 2 mps 740 mmHg 42%
    20:00 +35°C° 0 mm 2 mps 741 mmHg 45%
    21:00 +34°C° 0 mm 2 mps 741 mmHg 48%
    22:00 +34°C° 0 mm 2 mps 741 mmHg 49%
    23:00 +32°C° 0 mm 2 mps 741 mmHg 51%

    29 May, Friday

    Time Temperature Precipitation Wind Pressure Humidity
    00:00 +32°C° 0 mm 2 mps 741 mmHg 52%
    01:00 +31°C° 0 mm 2 mps 740 mmHg 54%
    02:00 +31°C° 0 mm 2 mps 740 mmHg 55%
    03:00 +30°C° 0 mm 1 mps 740 mmHg 57%
    04:00 +30°C° 0 mm 1 mps 740 mmHg 59%
    05:00 +29°C° 0 mm 1 mps 740 mmHg 61%
    06:00 +29°C° 0 mm 1 mps 741 mmHg 63%
    07:00 +31°C° 0 mm 1 mps 741 mmHg 57%
    08:00 +32°C° 0 mm 2 mps 741 mmHg 51%
    09:00 +35°C° 0 mm 2 mps 742 mmHg 46%
    10:00 +37°C° 0 mm 2 mps 741 mmHg 39%
    11:00 +39°C° 0 mm 1 mps 741 mmHg 33%
    12:00 +41°C° 0 mm 1 mps 740 mmHg 27%
    13:00 +42°C° 0 mm 1 mps 739 mmHg 25%
    14:00 +43°C° 0 mm 1 mps 738 mmHg 22%
    15:00 +44°C° 0 mm 1 mps 738 mmHg 20%
    16:00 +43°C° 0 mm 1 mps 737 mmHg 21%
    17:00 +42°C° 0 mm 1 mps 737 mmHg 22%
    18:00 +42°C° 0 mm 1 mps 737 mmHg 23%
    19:00 +40°C° 0 mm 2 mps 738 mmHg 26%
    20:00 +39°C° 0 mm 3 mps 738 mmHg 30%
    21:00 +38°C° 0 mm 4 mps 739 mmHg 33%
    22:00 +37°C° 0 mm 5 mps 739 mmHg 38%
    23:00 +36°C° 0 mm 5 mps 739 mmHg 43%

    30 May, Saturday

    Time Temperature Precipitation Wind Pressure Humidity
    00:00 +35°C° 0 mm 5 mps 739 mmHg 49%
    01:00 +34°C° 0 mm 5 mps 740 mmHg 53%
    02:00 +33°C° 0 mm 5 mps 740 mmHg 58%
    03:00 +33°C° 0 mm 5 mps 740 mmHg 62%
    04:00 +32°C° 0 mm 5 mps 740 mmHg 64%
    05:00 +32°C° 0 mm 5 mps 741 mmHg 66%
    06:00 +30°C° 0 mm 5 mps 741 mmHg 67%
    07:00 +32°C° 0 mm 4 mps 742 mmHg 64%
    08:00 +33°C° 0 mm 4 mps 742 mmHg 60%
    09:00 +34°C° 0 mm 4 mps 742 mmHg 56%
    10:00 +36°C° 0 mm 4 mps 742 mmHg 50%
    11:00 +37°C° 0 mm 4 mps 741 mmHg 43%
    12:00 +40°C° 0 mm 4 mps 741 mmHg 37%
    13:00 +41°C° 0 mm 4 mps 740 mmHg 35%
    14:00 +41°C° 0 mm 4 mps 739 mmHg 34%
    15:00 +42°C° 0 mm 4 mps 739 mmHg 32%
    16:00 +40°C° 0 mm 3 mps 739 mmHg 35%
    17:00 +39°C° 0 mm 3 mps 739 mmHg 37%
    18:00 +38°C° 0 mm 3 mps 739 mmHg 40%
    19:00 +37°C° 0.1 mm 3 mps 739 mmHg 43%
    20:00 +36°C° 0.1 mm 4 mps 740 mmHg 46%
    21:00 +35°C° 0.1 mm 4 mps 740 mmHg 49%
    22:00 +35°C° 0 mm 4 mps 741 mmHg 50%
    23:00 +34°C° 0 mm 4 mps 741 mmHg 51%

    31 May, Sunday

    Time Temperature Precipitation Wind Pressure Humidity
    00:00 +34°C° 0 mm 5 mps 741 mmHg 53%
    01:00 +33°C° 0 mm 5 mps 741 mmHg 56%
    02:00 +32°C° 0 mm 5 mps 741 mmHg 60%
    03:00 +32°C° 0 mm 5 mps 741 mmHg 64%
    04:00 +30°C° 0 mm 5 mps 741 mmHg 66%
    05:00 +30°C° 0 mm 5 mps 742 mmHg 69%
    06:00 +30°C° 0 mm 4 mps 742 mmHg 71%
    07:00 +30°C° 0 mm 4 mps 742 mmHg 67%
    08:00 +32°C° 0 mm 4 mps 743 mmHg 64%
    09:00 +33°C° 0 mm 4 mps 743 mmHg 60%
    10:00 +34°C° 0 mm 4 mps 743 mmHg 54%
    11:00 +36°C° 0 mm 4 mps 742 mmHg 47%
    12:00 +38°C° 0 mm 4 mps 742 mmHg 41%
    13:00 +39°C° 0 mm 3 mps 741 mmHg 38%
    14:00 +40°C° 0 mm 3 mps 740 mmHg 35%
    15:00 +41°C° 0 mm 2 mps 740 mmHg 33%
    16:00 +40°C° 0 mm 3 mps 740 mmHg 34%
    17:00 +40°C° 0 mm 3 mps 740 mmHg 35%
    18:00 +39°C° 0 mm 3 mps 740 mmHg 37%
    19:00 +38°C° 0.2 mm 3 mps 740 mmHg 40%
    20:00 +37°C° 0.2 mm 3 mps 740 mmHg 44%
    21:00 +36°C° 0.2 mm 3 mps 741 mmHg 47%
    22:00 +35°C° 0.2 mm 3 mps 741 mmHg 49%
    23:00 +34°C° 0.2 mm 3 mps 741 mmHg 52%
    Show more